SQ9IWE-13 Weather Reports


Display with metric or nautical units.
time (UTC)temp
F
wind
direction
speed
MPH
gust
MPH
rain 1hr
in
rain 24hr
in
rain mn
in
humidity
%
barometer
mb
20260903080001 79 0 0.0 0.0 0.00 0.00 0.00 53 1019.5
20260903075001 76 0 0.0 0.0 0.00 0.00 0.00 57 1019.5
20260903074001 76 0 0.0 0.0 0.00 0.00 0.00 60 1019.5
20260903073001 75 0 0.0 0.0 0.00 0.00 0.00 60 1019.4
20260903072001 75 0 0.0 0.0 0.00 0.00 0.00 60 1019.5
20260903071001 73 0 0.0 0.0 0.00 0.00 0.00 65 1019.4
20260903070001 68 0 0.0 0.0 0.00 0.00 0.00 71 1019.2
20260903064001 65 0 0.0 0.0 0.00 0.00 0.00 75 1019.3
20260903063001 64 0 0.0 0.0 0.00 0.00 0.00 75 1019.3
20260903061001 63 0 0.0 0.0 0.00 0.00 0.00 79 1019.6
20260903060001 62 0 0.0 0.0 0.00 0.00 0.00 81 1019.5
20260903055001 61 0 0.0 0.0 0.00 0.00 0.00 82 1019.5
20260903054001 60 0 0.0 0.0 0.00 0.00 0.00 85 1019.4
20260903053001 59 0 0.0 0.0 0.00 0.00 0.00 86 1019.4
20260903051001 59 0 0.0 0.0 0.00 0.00 0.00 86 1019.2
20260903050001 59 0 0.0 0.0 0.00 0.00 0.00 87 1019.2
20260903045001 59 0 0.0 0.0 0.00 0.00 0.00 89 1019.0
20260903044001 58 0 0.0 0.0 0.00 0.00 0.00 90 1019.0
20260903043001 58 0 0.0 0.0 0.00 0.00 0.00 91 1019.0
20260903042001 57 0 0.0 0.0 0.00 0.00 0.00 90 1019.0
20260903041001 58 0 0.0 0.0 0.00 0.00 0.00 90 1019.1
20260903040001 58 0 0.0 0.0 0.00 0.00 0.00 88 1019.0
20260903035000 59 0 0.0 0.0 0.00 0.00 0.00 88 1019.0
20260903034001 59 0 0.0 0.0 0.00 0.00 0.00 87 1018.9
20260903033000 59 0 0.0 0.0 0.00 0.00 0.00 86 1019.1
20260903032000 59 0 0.0 0.0 0.00 0.00 0.00 85 1019.1
20260903031000 60 0 0.0 0.0 0.00 0.00 0.00 85 1019.1
20260903025000 59 0 0.0 0.0 0.00 0.00 0.00 87 1019.2
20260903024000 59 0 0.0 0.0 0.00 0.00 0.00 87 1019.2
20260903023000 59 0 0.0 0.0 0.00 0.00 0.00 87 1019.2
20260903022000 59 0 0.0 0.0 0.00 0.00 0.00 88 1019.0
20260903021000 59 0 0.0 0.0 0.00 0.00 0.00 89 1019.2
20260903020001 59 0 0.0 0.0 0.00 0.00 0.00 90 1019.2
20260903015001 59 0 0.0 0.0 0.00 0.00 0.00 90 1019.0
20260903014001 60 0 0.0 0.0 0.00 0.00 0.00 89 1018.8
20260903013001 60 0 0.0 0.0 0.00 0.00 0.00 89 1018.9
20260903012001 60 0 0.0 0.0 0.00 0.00 0.00 89 1018.8
20260903011001 60 0 0.0 0.0 0.00 0.00 0.00 89 1018.8
20260903010001 60 0 0.0 0.0 0.00 0.00 0.00 89 1018.8
20260903005001 60 0 0.0 0.0 0.00 0.00 0.00 88 1019.0
20260903004001 60 0 0.0 0.0 0.00 0.00 0.00 88 1019.0
20260903003001 60 0 0.0 0.0 0.00 0.00 0.00 87 1019.1
20260903002001 60 0 0.0 0.0 0.00 0.00 0.00 87 1019.0
20260903001001 60 0 0.0 0.0 0.00 0.00 0.00 87 1019.1
20260903000001 60 0 0.0 0.0 0.00 0.00 0.00 87 1019.2
20260902235001 60 0 0.0 0.0 0.00 0.00 0.00 86 1019.2
20260902234001 61 0 0.0 0.0 0.00 0.00 0.00 86 1019.2
20260902233001 61 0 0.0 0.0 0.00 0.00 0.00 85 1019.2
20260902232001 61 0 0.0 0.0 0.00 0.00 0.00 85 1019.3
20260902231001 61 0 0.0 0.0 0.00 0.00 0.00 85 1019.4
20260902230001 60 0 0.0 0.0 0.00 0.00 0.00 85 1019.4
20260902225001 60 0 0.0 0.0 0.00 0.00 0.00 85 1019.5
20260902224001 60 0 0.0 0.0 0.00 0.00 0.00 87 1019.4
20260902223001 60 0 0.0 0.0 0.00 0.00 0.00 86 1019.4
20260902222001 60 0 0.0 0.0 0.00 0.00 0.00 84 1019.4
20260902220001 61 0 0.0 0.0 0.00 0.00 0.00 82 1019.3
20260902215001 61 0 0.0 0.0 0.00 0.00 0.00 82 1019.2
20260902214001 61 0 0.0 0.0 0.00 0.00 0.00 83 1019.4
20260902213001 61 0 0.0 0.0 0.00 0.00 0.00 83 1019.4
20260902212001 61 0 0.0 0.0 0.00 0.00 0.00 83 1019.4
20260902211001 62 0 0.0 0.0 0.00 0.00 0.00 83 1019.5
20260902210001 62 0 0.0 0.0 0.00 0.00 0.00 82 1019.3
20260902204001 62 0 0.0 0.0 0.00 0.00 0.00 80 1019.3
20260902203000 63 0 0.0 0.0 0.00 0.00 0.00 79 1019.3
20260902202000 63 0 0.0 0.0 0.00 0.00 0.00 78 1019.2
20260902201000 64 0 0.0 0.0 0.00 0.00 0.00 77 1019.2
20260902200000 64 0 0.0 0.0 0.00 0.00 0.00 76 1019.2
20260902195000 64 0 0.0 0.0 0.00 0.00 0.00 76 1019.2
20260902194000 64 0 0.0 0.0 0.00 0.00 0.00 76 1019.3
20260902193000 64 0 0.0 0.0 0.00 0.00 0.00 75 1019.3
20260902192000 65 0 0.0 0.0 0.00 0.00 0.00 74 1019.4
20260902191000 65 0 0.0 0.0 0.00 0.00 0.00 74 1019.4
20260902190001 65 0 0.0 0.0 0.00 0.00 0.00 74 1019.3
20260902185001 65 0 0.0 0.0 0.00 0.00 0.00 73 1019.4
20260902184001 66 0 0.0 0.0 0.00 0.00 0.00 72 1019.4
20260902183001 66 0 0.0 0.0 0.00 0.00 0.00 71 1019.3
20260902182001 67 0 0.0 0.0 0.00 0.00 0.00 69 1019.3
20260902181001 67 0 0.0 0.0 0.00 0.00 0.00 69 1019.3
20260902180001 68 0 0.0 0.0 0.00 0.00 0.00 68 1019.2
20260902175001 68 0 0.0 0.0 0.00 0.00 0.00 66 1019.2
20260902174001 69 0 0.0 0.0 0.00 0.00 0.00 65 1019.1
20260902173001 69 0 0.0 0.0 0.00 0.00 0.00 64 1019.1
20260902172001 70 0 0.0 0.0 0.00 0.00 0.00 63 1019.0
20260902170001 71 0 0.0 0.0 0.00 0.00 0.00 61 1019.0
20260902165001 71 0 0.0 0.0 0.00 0.00 0.00 61 1019.0
20260902164001 72 0 0.0 0.0 0.00 0.00 0.00 60 1019.0
20260902163001 72 0 0.0 0.0 0.00 0.00 0.00 59 1018.8
20260902162001 73 0 0.0 0.0 0.00 0.00 0.00 59 1018.9
20260902161001 73 0 0.0 0.0 0.00 0.00 0.00 58 1018.9
20260902160001 73 0 0.0 0.0 0.00 0.00 0.00 58 1019.0
20260902155001 74 0 0.0 0.0 0.00 0.00 0.00 57 1018.8
20260902154001 75 0 0.0 0.0 0.00 0.00 0.00 56 1018.9
20260902153001 75 0 0.0 0.0 0.00 0.00 0.00 55 1019.0
20260902152001 75 0 0.0 0.0 0.00 0.00 0.00 55 1019.1
20260902151001 75 0 0.0 0.0 0.00 0.00 0.00 55 1019.1
20260902150001 76 0 0.0 0.0 0.00 0.00 0.00 54 1019.2
20260902145001 75 0 0.0 0.0 0.00 0.00 0.00 55 1019.3
20260902144001 75 0 0.0 0.0 0.00 0.00 0.00 55 1019.2
20260902143001 76 0 0.0 0.0 0.00 0.00 0.00 55 1019.2
20260902142001 76 0 0.0 0.0 0.00 0.00 0.00 54 1019.1
20260902141000 76 0 0.0 0.0 0.00 0.00 0.00 54 1019.4
20260902140001 76 0 0.0 0.0 0.00 0.00 0.00 54 1019.3
20260902135000 77 0 0.0 0.0 0.00 0.00 0.00 54 1019.4
20260902134000 77 0 0.0 0.0 0.00 0.00 0.00 54 1019.3
20260902133000 77 0 0.0 0.0 0.00 0.00 0.00 53 1019.5
20260902132000 76 0 0.0 0.0 0.00 0.00 0.00 55 1019.4
20260902131000 77 0 0.0 0.0 0.00 0.00 0.00 54 1019.6
20260902130000 77 0 0.0 0.0 0.00 0.00 0.00 54 1019.5
20260902125000 76 0 0.0 0.0 0.00 0.00 0.00 55 1019.6
20260902124000 77 0 0.0 0.0 0.00 0.00 0.00 54 1019.7
20260902123000 77 0 0.0 0.0 0.00 0.00 0.00 55 1019.7
20260902122000 77 0 0.0 0.0 0.00 0.00 0.00 52 1019.7
20260902121001 79 0 0.0 0.0 0.00 0.00 0.00 52 1019.9
20260902120001 78 0 0.0 0.0 0.00 0.00 0.00 51 1019.8
20260902115001 82 0 0.0 0.0 0.00 0.00 0.00 48 1020.0
20260902114001 79 0 0.0 0.0 0.00 0.00 0.00 54 1020.0
20260902113001 77 0 0.0 0.0 0.00 0.00 0.00 53 1020.1
20260902112001 78 0 0.0 0.0 0.00 0.00 0.00 52 1020.1
20260902111001 79 0 0.0 0.0 0.00 0.00 0.00 51 1020.2
20260902110001 81 0 0.0 0.0 0.00 0.00 0.00 48 1020.2
20260902105001 81 0 0.0 0.0 0.00 0.00 0.00 50 1020.3
20260902104001 81 0 0.0 0.0 0.00 0.00 0.00 50 1020.4
20260902103001 79 0 0.0 0.0 0.00 0.00 0.00 52 1020.4
20260902102001 76 0 0.0 0.0 0.00 0.00 0.00 52 1020.6
20260902101001 79 0 0.0 0.0 0.00 0.00 0.00 51 1020.5
20260902100001 78 0 0.0 0.0 0.00 0.00 0.00 55 1020.6
20260902095001 79 0 0.0 0.0 0.00 0.00 0.00 52 1020.6
20260902094001 78 0 0.0 0.0 0.00 0.00 0.00 53 1020.7
20260902093001 77 0 0.0 0.0 0.00 0.00 0.00 53 1020.9
20260902092001 80 0 0.0 0.0 0.00 0.00 0.00 50 1020.7
20260902091001 82 0 0.0 0.0 0.00 0.00 0.00 50 1020.8
20260902090001 80 0 0.0 0.0 0.00 0.00 0.00 50 1020.8
20260902084001 80 0 0.0 0.0 0.00 0.00 0.00 50 1020.8
20260902083001 84 0 0.0 0.0 0.00 0.00 0.00 47 1020.8
20260902082001 84 0 0.0 0.0 0.00 0.00 0.00 47 1021.0
20260902081001 83 0 0.0 0.0 0.00 0.00 0.00 49 1021.0